Total_Precipitation_Accumulation
1.70 2.17 2.81 3.48 4.26 5.38 6.06 6.20 5.92 5.20 4.68 4.27 4.01 3.72 3.45 3.17 2.69 2.27 2.01 1.88 1.79 1.73 1.92 1.77 1.80 1.69 1.72 1.76 1.84 2.08 2.17 1.96 2.13 2.44 2.23 1.92 1.67 1.65 1.56 1.49 1.62 1.67 1.76
1.58 2.17 2.94 3.74 4.40 4.96 5.33 5.41 5.03 4.26 3.77 3.50 3.43 3.15 2.94 2.59 2.39 2.16 2.10 1.82 1.74 1.73 1.62 1.79 1.61 1.54 1.73 1.70 1.78 2.00 2.01 1.79 1.93 2.26 2.37 2.09 1.98 1.63 1.19 1.39 1.50 1.55 1.84
1.78 2.53 3.33 4.07 4.42 4.45 4.22 3.94 3.75 3.35 3.22 3.16 2.98 2.76 2.70 2.40 2.24 2.05 1.95 1.67 1.50 1.47 1.50 1.49 1.40 1.49 1.42 1.58 1.74 1.85 2.02 2.00 1.81 1.82 2.16 2.10 2.04 1.81 1.39 1.20 1.28 1.52 1.79
1.92 2.62 3.15 3.38 3.54 3.47 3.18 2.99 2.90 2.82 2.76 2.67 2.54 2.25 2.12 2.07 1.93 1.84 1.85 1.73 1.53 1.45 1.43 1.37 1.46 1.48 1.36 1.61 1.41 1.56 1.86 2.00 1.81 1.79 1.73 1.77 1.92 1.95 1.79 1.52 1.31 1.45 1.54
1.49 1.69 1.89 2.05 2.18 2.22 2.37 2.45 2.57 2.68 2.59 2.51 2.48 2.37 2.11 2.06 2.03 2.02 2.10 1.97 1.77 1.55 1.32 1.36 1.55 1.59 1.46 1.49 1.50 1.68 1.70 1.74 1.76 1.75 1.73 1.89 1.93 1.75 1.80 1.80 1.67 1.58 1.33
0.94 1.03 1.13 1.25 1.48 1.53 1.73 1.94 2.07 2.23 2.39 2.41 2.24 2.15 2.09 2.12 2.16 2.10 1.93 1.74 1.61 1.51 1.40 1.47 1.70 1.69 1.64 1.59 1.55 1.57 1.62 1.78 1.89 1.86 1.74 1.81 1.89 1.87 1.97 1.79 1.72 1.75 1.53
0.76 0.90 1.02 1.12 1.32 1.27 1.34 1.57 1.65 1.67 1.82 1.86 1.82 1.88 2.00 2.05 1.93 1.82 1.74 1.58 1.34 1.32 1.40 1.45 1.65 1.64 1.64 1.56 1.70 1.72 1.66 1.77 1.84 1.81 1.77 1.70 1.63 1.76 1.93 1.98 1.83 1.81 1.75
0.67 0.77 0.77 0.86 0.98 0.95 1.07 1.23 1.32 1.38 1.44 1.56 1.66 1.62 1.76 1.78 1.70 1.75 1.63 1.49 1.28 1.18 1.20 1.30 1.37 1.43 1.48 1.44 1.78 1.68 1.70 1.78 1.72 1.63 1.94 1.85 1.61 1.78 1.92 2.12 2.29 2.16 2.05
0.54 0.61 0.55 0.56 0.68 0.79 0.92 1.04 1.11 1.23 1.26 1.41 1.48 1.44 1.54 1.61 1.66 1.66 1.55 1.38 1.38 1.24 1.27 1.32 1.49 1.59 1.61 1.63 1.84 1.78 1.75 1.88 1.71 1.70 1.86 1.84 1.79 1.81 1.79 2.12 2.42 2.53 2.35
0.47 0.50 0.50 0.46 0.52 0.68 0.93 1.01 1.03 1.15 1.19 1.28 1.29 1.17 1.33 1.45 1.57 1.52 1.44 1.41 1.43 1.37 1.45 1.49 1.60 1.67 1.62 1.62 1.77 1.78 1.87 1.94 1.83 1.82 1.87 1.85 1.85 1.95 1.88 2.01 2.23 2.41 2.59
0.51 0.49 0.49 0.48 0.45 0.56 0.77 0.84 0.97 1.09 1.15 1.21 1.31 1.36 1.36 1.30 1.41 1.42 1.40 1.43 1.47 1.41 1.46 1.56 1.65 1.64 1.68 1.78 1.88 1.75 1.83 1.94 2.11 2.05 2.04 2.09 2.19 2.16 2.07 2.15 2.22 2.35 2.62
0.42 0.44 0.49 0.53 0.48 0.49 0.60 0.74 0.91 1.06 1.11 1.18 1.30 1.38 1.51 1.47 1.42 1.40 1.44 1.47 1.56 1.61 1.60 1.68 1.71 1.57 1.59 1.78 1.86 1.85 1.89 1.94 2.00 2.18 2.39 2.35 2.38 2.30 2.17 2.27 2.21 2.27 2.55
0.53 0.52 0.57 0.61 0.63 0.60 0.63 0.74 0.89 1.05 1.17 1.25 1.33 1.47 1.54 1.44 1.38 1.49 1.58 1.61 1.75 1.89 1.96 1.94 1.79 1.69 1.67 1.74 1.85 1.95 1.96 1.99 2.07 2.21 2.31 2.35 2.49 2.38 2.28 2.22 2.19 2.27 2.43
0.62 0.56 0.54 0.59 0.69 0.83 0.84 0.89 1.13 1.15 1.15 1.34 1.48 1.55 1.58 1.53 1.51 1.59 1.70 1.73 1.80 1.96 2.09 2.04 1.95 1.91 1.82 1.69 1.66 1.71 1.81 1.98 2.14 2.19 2.11 2.19 2.42 2.48 2.46 2.28 2.24 2.34 2.47
0.60 0.52 0.51 0.56 0.67 0.80 0.86 0.98 1.06 1.24 1.29 1.48 1.63 1.67 1.77 1.79 1.83 1.94 1.95 1.88 1.88 1.91 2.06 2.11 2.11 2.05 1.89 1.66 1.70 1.83 1.84 2.02 2.06 2.00 1.89 1.88 2.08 2.32 2.40 2.20 2.19 2.31 2.33
0.58 0.60 0.64 0.67 0.70 0.75 0.82 0.89 0.97 1.18 1.39 1.67 1.99 2.01 2.04 2.04 2.12 2.29 2.36 2.26 2.22 2.30 2.33 2.26 2.20 2.11 1.76 1.83 1.85 1.84 1.89 2.02 2.05 2.00 1.92 1.80 1.77 1.80 1.93 2.06 2.18 2.30 2.26
0.74 0.79 0.89 0.88 0.85 0.86 0.89 0.97 1.07 1.25 1.54 1.83 2.08 2.22 2.27 2.29 2.36 2.45 2.47 2.41 2.50 2.66 2.68 2.56 2.38 2.23 2.13 2.02 1.80 1.74 1.67 1.73 1.79 1.85 1.85 1.58 1.42 1.53 1.46 1.64 1.80 1.92 1.99
0.79 0.85 1.00 1.05 1.01 1.00 1.07 1.20 1.36 1.59 1.87 2.08 2.21 2.32 2.33 2.34 2.37 2.41 2.33 2.36 2.49 2.57 2.60 2.53 2.40 2.29 2.21 2.06 1.71 1.61 1.42 1.48 1.53 1.57 1.58 1.53 1.46 1.44 1.49 1.49 1.48 1.47 1.55
0.84 0.92 1.03 1.15 1.21 1.23 1.33 1.40 1.53 1.73 1.97 2.12 2.15 2.13 2.21 2.29 2.32 2.33 2.37 2.41 2.41 2.30 2.20 2.17 2.17 2.14 2.17 2.10 1.74 1.54 1.38 1.49 1.52 1.53 1.56 1.59 1.52 1.63 1.50 1.45 1.49 1.50 1.52
0.85 0.97 0.99 1.07 1.19 1.29 1.33 1.42 1.59 1.79 1.98 2.12 2.13 2.09 2.19 2.29 2.32 2.36 2.41 2.35 2.27 2.20 2.15 2.05 2.06 2.06 2.04 2.04 1.66 1.51 1.41 1.52 1.53 1.57 1.58 1.57 1.46 1.48 1.34 1.28 1.41 1.43 1.45
0.96 0.96 1.03 1.09 1.13 1.24 1.33 1.44 1.57 1.69 1.81 1.93 2.04 2.16 2.33 2.40 2.41 2.44 2.40 2.32 2.22 2.22 2.22 2.13 2.05 2.02 1.98 2.00 1.70 1.51 1.35 1.50 1.67 1.66 1.60 1.59 1.51 1.23 1.15 1.11 1.13 1.19 1.23
1.02 1.04 1.11 1.24 1.31 1.36 1.39 1.48 1.49 1.57 1.74 1.79 1.91 1.97 2.10 2.22 2.23 2.30 2.25 2.25 2.20 2.13 2.07 1.97 1.87 1.84 1.86 1.76 1.61 1.40 1.27 1.34 1.49 1.60 1.61 1.60 1.46 1.17 1.05 0.95 0.94 0.94 0.91
1.20 1.15 1.14 1.22 1.29 1.40 1.50 1.58 1.56 1.53 1.57 1.66 1.79 1.89 1.96 2.12 2.16 2.18 2.12 2.05 2.01 1.92 1.82 1.72 1.65 1.66 1.70 1.64 1.41 1.22 1.13 1.18 1.26 1.41 1.56 1.46 1.27 1.09 0.93 0.87 0.84 0.80 0.76
1.03 1.08 1.10 1.16 1.33 1.34 1.41 1.52 1.59 1.56 1.60 1.67 1.69 1.78 1.85 1.94 2.11 2.13 1.99 1.86 1.75 1.67 1.65 1.60 1.61 1.64 1.66 1.59 1.40 1.20 1.06 1.08 1.14 1.21 1.29 1.29 1.26 1.19 1.08 0.97 0.87 0.78 0.84
0.90 0.91 0.95 0.99 1.08 1.11 1.16 1.27 1.38 1.43 1.42 1.39 1.36 1.36 1.48 1.64 1.82 1.87 1.81 1.65 1.54 1.61 1.65 1.61 1.58 1.51 1.45 1.49 1.44 1.26 1.19 1.21 1.25 1.20 1.22 1.24 1.32 1.36 1.36 1.32 1.22 1.14 1.12
0.75 0.79 0.82 0.84 0.88 0.94 1.04 1.15 1.34 1.46 1.46 1.36 1.26 1.23 1.24 1.33 1.53 1.74 1.81 1.67 1.45 1.49 1.44 1.37 1.32 1.30 1.27 1.26 1.26 1.21 1.15 1.18 1.18 1.09 1.21 1.36 1.45 1.53 1.55 1.53 1.41 1.26 1.14